Date String (YYYY-MM-DD hh:mm:ss) UTC,Instrument flags,Ambient pressure (hPa),Sample flow (lpm),Bypass flow (lpm),Sample temperature (°C),Ambient temperature (°C),ASC tube jacket temperature (°C),LED temperature (°C),Box temperature (°C),Sample RH (%),Span deviation,Mass concentration (μg/m³),Mass concentration (μg/m³),Mass concentration (μg/m³)
DateTimeUTC,F1_M11,P_M11,Q1_M11,Q2_M11,T1_M11,T2_M11,T3_M11,T4_M11,T5_M11,U1_M11,ZSPAN_M11,X2_M11,X0_M11,X1_M11
2023-01-24 15:00:00,,0825.1,4.98,0.00,22.0,20.9,00.0,30.7,23.7,13.0,-001.9,0017.67,0021.69,0017.39
2023-01-24 15:01:00,,0825.2,4.99,0.00,22.0,20.7,00.0,30.7,23.7,13.0,-001.8,0017.38,0021.38,0017.09
2023-01-24 15:02:00,,0825.2,5.01,0.00,22.0,20.6,00.0,30.7,23.7,13.0,-001.8,0017.12,0021.13,0016.82
2023-01-24 15:03:00,,0825.2,4.98,0.00,21.9,20.5,00.0,30.7,23.7,13.1,-001.9,0016.86,0020.91,0016.55
2023-01-24 15:04:00,,0825.2,4.99,0.00,21.9,20.4,00.0,30.7,23.6,13.2,-001.9,0016.60,0020.63,0016.29
2023-01-24 15:05:00,,0825.2,5.00,0.00,21.9,20.4,00.0,30.7,23.6,13.2,-001.9,0016.39,0020.32,0016.12
2023-01-24 15:06:00,,0825.2,5.01,0.00,21.9,20.3,00.0,30.7,23.6,13.2,-001.7,0016.20,0019.83,0015.94
2023-01-24 15:07:00,,0825.3,5.01,0.00,21.9,20.3,00.0,30.7,23.6,13.2,-001.6,0015.95,0019.31,0015.72
2023-01-24 15:08:00,,0825.3,5.00,0.00,21.9,20.5,00.0,30.7,23.6,13.3,-001.6,0015.98,0018.85,0015.74
2023-01-24 15:09:00,,0825.3,5.01,0.00,22.0,21.7,00.0,30.7,23.9,13.3,-001.9,0016.14,0018.72,0015.91
2023-01-24 15:10:00,,0825.3,5.00,0.00,22.1,22.7,00.0,30.7,24.1,13.3,-002.2,0016.30,0018.98,0016.06
2023-01-24 15:11:00,,0825.3,4.99,0.00,22.2,22.5,00.0,30.7,24.2,13.3,-002.1,0016.38,0019.07,0016.13
2023-01-24 15:12:00,,0825.4,5.02,0.00,22.2,22.0,00.0,30.8,24.1,13.2,-002.3,0016.31,0019.03,0016.06
2023-01-24 15:13:00,,0825.4,5.00,0.00,22.2,21.6,00.0,30.8,24.0,13.2,-002.3,0016.17,0018.96,0015.91
2023-01-24 15:14:00,,0825.4,5.01,0.00,22.2,21.3,00.0,30.8,24.0,13.1,-002.2,0016.08,0018.85,0015.80
2023-01-24 15:15:00,,0825.4,4.99,0.00,22.2,21.1,00.0,30.8,23.9,13.0,-002.3,0015.90,0018.73,0015.62
2023-01-24 15:16:00,,0825.4,4.99,0.00,22.2,20.9,00.0,30.9,23.9,13.0,-002.3,0015.70,0018.58,0015.39
2023-01-24 15:17:00,,0825.4,4.99,0.00,22.2,20.8,00.0,30.9,23.9,13.0,-002.4,0015.68,0018.62,0015.35
2023-01-24 15:18:00,,0825.4,5.00,0.00,22.2,20.7,00.0,30.9,23.9,13.1,-002.4,0015.65,0018.62,0015.32
2023-01-24 15:19:00,,0825.4,5.00,0.00,22.1,20.7,00.0,30.9,23.9,13.1,-002.4,0015.36,0018.36,0015.03
2023-01-24 15:20:00,,0825.4,5.01,0.00,22.1,20.7,00.0,30.9,23.9,13.1,-002.3,0015.05,0018.02,0014.72
2023-01-24 15:21:00,,0825.4,4.99,0.00,22.1,20.6,00.0,30.9,23.8,13.2,-002.3,0014.96,0017.89,0014.62
2023-01-24 15:22:00,,0825.4,4.99,0.00,22.1,20.5,00.0,30.9,23.8,13.4,-002.2,0015.07,0018.00,0014.71
2023-01-24 15:23:00,,0825.4,4.98,0.00,22.1,20.4,00.0,30.9,23.7,13.5,-002.2,0015.17,0018.10,0014.81
2023-01-24 15:24:00,,0825.4,5.00,0.00,22.0,20.3,00.0,30.8,23.7,13.6,-002.2,0015.28,0018.17,0014.93
2023-01-24 15:25:00,,0825.4,5.01,0.00,22.1,21.0,00.0,30.8,23.8,13.7,-002.2,0015.42,0018.30,0015.07
2023-01-24 15:26:00,,0825.5,5.00,0.00,22.2,22.3,00.0,30.8,24.1,13.7,-002.2,0015.64,0018.45,0015.31
2023-01-24 15:27:00,,0825.5,5.01,0.00,22.3,22.7,00.0,30.9,24.2,13.7,-002.2,0015.98,0018.76,0015.66
2023-01-24 15:28:00,,0825.6,4.99,0.00,22.3,22.1,00.0,30.9,24.2,13.7,-002.2,0016.23,0018.97,0015.95
2023-01-24 15:29:00,,0825.6,5.02,0.00,22.3,21.6,00.0,30.9,24.1,13.8,-002.3,0016.59,0019.31,0016.30
2023-01-24 15:30:00,,0825.5,5.01,0.00,22.2,21.1,00.0,30.9,23.9,13.9,-002.4,0017.12,0020.00,0016.81
2023-01-24 15:31:00,,0825.5,5.01,0.00,22.2,20.7,00.0,30.9,23.8,14.0,-002.2,0017.62,0020.50,0017.32
2023-01-24 15:32:00,,0825.5,5.01,0.00,22.1,20.4,00.0,30.9,23.7,14.1,-002.1,0017.98,0020.93,0017.66
2023-01-24 15:33:00,,0825.5,4.99,0.00,22.1,20.1,00.0,30.9,23.6,14.1,-002.3,0018.13,0021.10,0017.82
2023-01-24 15:34:00,,0825.4,4.99,0.00,22.0,19.8,00.0,30.9,23.5,14.2,-002.4,0018.38,0021.34,0018.08
2023-01-24 15:35:00,,0825.5,5.00,0.00,21.9,19.7,00.0,30.8,23.4,14.3,-002.5,0018.69,0021.64,0018.39
2023-01-24 15:36:00,,0825.4,5.00,0.00,21.9,19.6,00.0,30.8,23.3,14.3,-002.5,0018.92,0021.90,0018.62
2023-01-24 15:37:00,,0825.4,5.00,0.00,21.8,19.5,00.0,30.8,23.2,14.3,-002.4,0019.13,0022.22,0018.81
2023-01-24 15:38:00,,0825.5,5.00,0.00,21.7,19.4,00.0,30.8,23.1,14.3,-002.5,0019.33,0022.53,0018.98
2023-01-24 15:39:00,,0825.4,5.01,0.00,21.7,19.8,00.0,30.7,23.2,14.3,-002.5,0019.46,0022.70,0019.10
2023-01-24 15:40:00,,0825.4,5.00,0.00,21.8,21.2,00.0,30.7,23.5,14.2,-002.5,0019.53,0022.84,0019.18
2023-01-24 15:41:00,,0825.4,4.99,0.00,21.9,22.4,00.0,30.7,23.8,14.1,-002.5,0019.52,0022.77,0019.19
2023-01-24 15:42:00,,0825.4,5.00,0.00,22.0,22.5,00.0,30.7,23.9,13.9,-002.6,0019.43,0022.98,0019.11
2023-01-24 15:43:00,,0825.4,5.01,0.00,22.0,21.6,00.0,30.8,23.7,13.8,-002.6,0019.32,0023.04,0019.02
2023-01-24 15:44:00,,0825.4,4.99,0.00,21.9,20.8,00.0,30.8,23.5,13.8,-002.6,0019.24,0022.97,0018.94
2023-01-24 15:45:00,,0825.5,5.01,0.00,21.8,20.2,00.0,30.7,23.3,13.8,-002.5,0019.16,0022.92,0018.86
2023-01-24 15:46:00,,0825.5,5.01,0.00,21.8,19.7,00.0,30.7,23.2,13.8,-002.5,0019.01,0022.76,0018.72
2023-01-24 15:47:00,,0825.5,4.99,0.00,21.7,19.4,00.0,30.7,23.0,13.7,-002.4,0018.84,0022.68,0018.57
2023-01-24 15:48:00,,0825.5,5.01,0.00,21.6,19.2,00.0,30.6,22.9,13.7,-002.4,0018.76,0022.75,0018.47
2023-01-24 15:49:00,,0825.4,5.00,0.00,21.5,19.0,00.0,30.6,22.9,13.5,-002.4,0018.73,0022.64,0018.47
2023-01-24 15:50:00,,0825.5,5.00,0.00,21.4,19.0,00.0,30.6,22.8,13.5,-002.4,0018.76,0022.69,0018.49
2023-01-24 15:51:00,,0825.5,5.01,0.00,21.4,19.1,00.0,30.5,22.8,13.4,-002.5,0018.76,0022.69,0018.49
2023-01-24 15:52:00,,0825.5,5.01,0.00,21.5,20.6,00.0,30.5,23.1,13.3,-002.5,0018.73,0022.54,0018.47
2023-01-24 15:53:00,,0825.5,4.98,0.00,21.6,21.9,00.0,30.5,23.4,13.1,-002.5,0018.71,0022.23,0018.46
2023-01-24 15:54:00,,0825.4,4.99,0.00,21.7,21.9,00.0,30.5,23.5,13.0,-002.5,0018.72,0022.03,0018.47
2023-01-24 15:55:00,,0825.4,5.00,0.00,21.7,21.3,00.0,30.5,23.5,12.9,-002.4,0018.72,0022.03,0018.46
2023-01-24 15:56:00,,0825.4,5.01,0.00,21.7,20.8,00.0,30.5,23.3,12.8,-002.3,0018.71,0022.07,0018.42
2023-01-24 15:57:00,,0825.4,4.99,0.00,21.7,20.5,00.0,30.5,23.3,12.8,-002.3,0018.76,0022.16,0018.45
2023-01-24 15:58:00,,0825.4,4.98,0.00,21.6,20.2,00.0,30.5,23.2,12.8,-002.4,0018.81,0022.13,0018.51
2023-01-24 15:59:00,,0825.4,4.98,0.00,21.6,20.1,00.0,30.5,23.2,12.9,-002.3,0018.88,0021.94,0018.59
